Regional Weather Roundup
Issued by NWS

Home | Current Version | Previous Version | Graphics & Text | Print | Product List | Glossary On
Versions: 1 2 3 4 5 6 7 8 9 10 11 12 13 14 15 16 17 18 19 20 21 22 23 24 25 26 27 28 29 30 31 32 33 34 35 36 37 38 39 40 41 42 43 44 45 46 47 48 49 50
000
ASUS43 KLSX 282310
RWRMO

WEATHER SUMMARY FOR MISSOURI
NATIONAL WEATHER SERVICE SPRINGFIELD MO
600 PM CDT THU JUL 28 2016

NOTE: "FAIR" INDICATES FEW OR NO CLOUDS BELOW 12,000 FEET WITH NO
       SIGNIFICANT WEATHER AND/OR OBSTRUCTIONS TO VISIBILITY.
       CURRENT SKY AND/OR WEATHER CONDITIONS ARE NOT AVAILABLE FOR
       CHILLICOTHE AND FARMINGTON.

MOZ001>031-035>038-043-044-053-054-290000-
...NORTHERN AND WESTERN MISSOURI...

CITY           SKY/WX    TMP DP  RH WIND       PRES   REMARKS
KANSAS CTY INT MOSUNNY   87  67  51 N10       29.92F HX  90
KANSAS C DTWN  SUNNY     89  67  47 N12       29.89F HX  92
LEE`S SUMMIT   SUNNY     88  69  53 N12       29.92S HX  92
ST JOSEPH      SUNNY     86  66  51 N9        29.93S
CHILLICOTHE      N/A     89  64  43 VRB7      29.92F HX  90
KIRKSVILLE     SUNNY     84  61  45 N14       29.93S

$$
MOZ066>068-077>081-088>096-101>105-290000-
...SOUTHWEST MISSOURI...

CITY           SKY/WX    TMP DP  RH WIND       PRES   REMARKS
SPRINGFIELD    PTSUNNY   81  67  62 VRB7      29.96R
JOPLIN         CLOUDY    90  70  51 NW6       29.92F HX  95
BRANSON        CLOUDY    81  73  78 SW9       29.95R

$$
MOZ032>034-039>042-045>050-055>058-069>072-290000-
...CENTRAL MISSOURI...

CITY           SKY/WX    TMP DP  RH WIND       PRES   REMARKS
COLUMBIA       LGT RAIN  74  71  91 E9        29.92S
JEFFERSON CITY PTSUNNY   83  72  69 N15       29.90R
ROLLA          PTSUNNY   79  69  71 SW6       29.92R
SEDALIA        HVY RAIN  77  71  82 VRB5G24   29.94R VSB 1
WHITEMAN AFB   PTSUNNY   83  71  66 NE8       29.90S
OSAGE BEACH    PTSUNNY   80  73  79 CALM      29.93R

$$
MOZ051-052-059>065-290000-
...EAST CENTRAL MISSOURI...

CITY           SKY/WX    TMP DP  RH WIND       PRES   REMARKS
ST LOUIS INTL  CLOUDY    88  69  53 NW12      29.88  HX  92
SPIRIT OF STL  CLOUDY    88  71  57 NW5       29.86S HX  94
ST CHARLES     MOSUNNY   87  72  60 NW9       29.86S HX  93

$$
MOZ072>076-082>087-097>100-106>115-290000-
...SOUTH CENTRAL AND SOUTHEAST MISSOURI...

CITY           SKY/WX    TMP DP  RH WIND       PRES   REMARKS
CAPE GIRARDEAU CLOUDY    81  71  71 W7        29.88R
FARMINGTON     LGT RAIN  84  73  69 NW6       29.91R HX  90
POPLAR BLUFF   CLOUDY    79  71  76 SW5       29.86F
WEST PLAINS    PTSUNNY   89  69  51 W6        29.93S HX  93

$$




USA.gov is the U.S. government's official web portal to all federal, state and local government web resources and services.